Total_Precipitation_Accumulation
0.17 0.16 0.17 0.25 0.21 0.15 0.10 0.04 0.02 0.03 0.03 0.03 0.03 0.04 0.04 0.06 0.06 0.09 0.09 0.08 0.07 0.10 0.23 0.50 0.74 0.87 0.95 0.93 0.85 0.78 0.74 0.74 0.81 0.86 0.88 0.91 0.99 1.03 1.09 1.10 1.07 1.01 0.98 0.99 1.05 1.11 1.10 1.03 0.93
0.21 0.24 0.27 0.29 0.22 0.15 0.08 0.05 0.02 0.02 0.02 0.03 0.03 0.03 0.03 0.04 0.04 0.05 0.10 0.13 0.10 0.11 0.22 0.40 0.71 0.87 0.92 0.93 0.89 0.88 0.89 0.88 0.93 0.96 0.93 0.90 0.98 1.07 1.15 1.11 1.08 1.05 1.01 0.96 0.95 0.95 0.96 0.83 0.72
0.33 0.37 0.35 0.30 0.16 0.11 0.07 0.03 0.02 0.02 0.02 0.03 0.02 0.03 0.04 0.05 0.05 0.07 0.11 0.15 0.14 0.16 0.24 0.47 0.77 0.94 0.97 1.00 0.95 0.94 0.98 1.03 1.05 1.05 1.04 1.04 1.08 1.11 1.18 1.20 1.17 1.09 1.01 0.97 0.93 0.85 0.82 0.77 0.71
0.46 0.49 0.39 0.25 0.09 0.05 0.04 0.03 0.01 0.02 0.02 0.02 0.02 0.03 0.04 0.04 0.05 0.09 0.13 0.20 0.21 0.23 0.30 0.53 0.81 0.99 1.04 1.09 1.07 1.08 1.10 1.12 1.14 1.09 1.09 1.12 1.23 1.24 1.21 1.20 1.25 1.21 1.05 0.97 0.95 0.87 0.84 0.76 0.72
0.62 0.54 0.38 0.18 0.04 0.02 0.02 0.03 0.02 0.01 0.02 0.03 0.03 0.03 0.05 0.05 0.07 0.12 0.18 0.26 0.30 0.33 0.39 0.58 0.86 1.05 1.16 1.21 1.23 1.29 1.31 1.31 1.27 1.20 1.14 1.13 1.17 1.25 1.21 1.13 1.13 1.10 1.05 0.99 0.95 0.88 0.84 0.82 0.77
0.70 0.56 0.32 0.12 0.04 0.03 0.02 0.02 0.02 0.02 0.03 0.04 0.05 0.04 0.07 0.09 0.12 0.16 0.18 0.25 0.32 0.40 0.50 0.71 1.04 1.18 1.26 1.31 1.29 1.38 1.46 1.50 1.46 1.35 1.24 1.21 1.21 1.21 1.20 1.10 1.07 1.06 1.03 0.95 0.90 0.88 0.81 0.79 0.77
0.76 0.55 0.27 0.10 0.06 0.05 0.04 0.02 0.01 0.02 0.03 0.05 0.06 0.07 0.10 0.16 0.20 0.20 0.22 0.28 0.35 0.45 0.60 0.82 1.10 1.27 1.46 1.46 1.38 1.39 1.43 1.52 1.50 1.39 1.30 1.24 1.21 1.19 1.16 1.15 1.07 1.06 1.08 1.01 0.88 0.84 0.85 0.75 0.70
0.79 0.69 0.35 0.13 0.08 0.07 0.07 0.06 0.03 0.03 0.03 0.04 0.06 0.09 0.11 0.18 0.24 0.29 0.34 0.37 0.48 0.58 0.74 0.94 1.14 1.27 1.41 1.51 1.45 1.38 1.39 1.46 1.56 1.50 1.35 1.27 1.26 1.27 1.19 1.09 1.14 1.11 1.07 1.06 0.95 0.86 0.91 0.87 0.72
0.93 0.87 0.46 0.18 0.12 0.09 0.08 0.08 0.05 0.04 0.05 0.06 0.07 0.09 0.11 0.20 0.29 0.41 0.51 0.58 0.66 0.78 0.93 1.06 1.19 1.31 1.45 1.54 1.48 1.48 1.48 1.52 1.59 1.59 1.52 1.40 1.36 1.37 1.28 1.11 1.12 1.18 1.16 1.08 1.03 0.95 0.93 0.91 0.76
1.01 0.81 0.38 0.18 0.17 0.15 0.11 0.10 0.08 0.08 0.08 0.09 0.10 0.14 0.19 0.30 0.42 0.46 0.51 0.60 0.69 0.82 1.00 1.14 1.23 1.37 1.58 1.66 1.69 1.76 1.63 1.55 1.58 1.50 1.49 1.47 1.44 1.49 1.38 1.32 1.21 1.20 1.23 1.20 1.15 1.08 1.01 0.94 0.79
0.82 0.58 0.30 0.20 0.23 0.23 0.18 0.13 0.11 0.12 0.11 0.10 0.12 0.17 0.25 0.37 0.47 0.51 0.53 0.60 0.68 0.83 1.02 1.22 1.35 1.49 1.68 1.72 1.72 1.75 1.73 1.62 1.63 1.60 1.52 1.51 1.53 1.47 1.51 1.47 1.49 1.45 1.37 1.35 1.32 1.27 1.12 1.01 0.91
0.71 0.46 0.31 0.26 0.26 0.30 0.27 0.21 0.17 0.13 0.10 0.10 0.14 0.20 0.28 0.39 0.47 0.53 0.62 0.71 0.79 0.92 1.08 1.25 1.45 1.65 1.82 1.84 1.87 1.80 1.70 1.61 1.55 1.62 1.61 1.56 1.48 1.36 1.28 1.28 1.26 1.30 1.31 1.34 1.36 1.32 1.20 1.11 1.03
0.69 0.49 0.34 0.27 0.27 0.30 0.31 0.27 0.22 0.14 0.09 0.12 0.18 0.26 0.33 0.40 0.46 0.59 0.74 0.83 0.90 0.97 1.11 1.25 1.44 1.63 1.87 2.09 2.07 2.03 1.89 1.71 1.63 1.65 1.64 1.57 1.50 1.38 1.25 1.16 1.21 1.19 1.16 1.19 1.23 1.16 1.07 1.03 0.96
0.61 0.51 0.40 0.32 0.29 0.29 0.33 0.30 0.29 0.18 0.16 0.20 0.25 0.28 0.36 0.44 0.52 0.68 0.81 0.90 0.95 1.02 1.16 1.31 1.47 1.60 1.83 2.10 2.18 2.14 2.08 1.98 1.90 1.79 1.70 1.63 1.57 1.47 1.37 1.23 1.19 1.18 1.15 1.16 1.15 1.12 1.04 0.97 0.88
0.62 0.66 0.52 0.37 0.32 0.32 0.38 0.40 0.35 0.25 0.25 0.26 0.29 0.31 0.37 0.49 0.54 0.63 0.74 0.92 1.06 1.12 1.24 1.41 1.58 1.72 1.83 1.98 2.25 2.28 2.26 2.19 2.12 1.93 1.89 1.89 1.76 1.65 1.59 1.45 1.31 1.20 1.18 1.21 1.22 1.18 1.17 1.06 0.91
0.84 0.93 0.75 0.41 0.33 0.36 0.53 0.51 0.32 0.31 0.37 0.35 0.34 0.36 0.45 0.55 0.58 0.65 0.72 0.92 1.17 1.25 1.33 1.56 1.69 1.84 1.90 1.94 2.18 2.30 2.32 2.39 2.36 2.26 2.12 2.07 2.05 1.95 1.85 1.73 1.58 1.45 1.33 1.26 1.26 1.19 1.17 1.13 1.02
1.20 1.05 0.71 0.45 0.36 0.43 0.56 0.55 0.38 0.36 0.45 0.45 0.43 0.42 0.48 0.60 0.64 0.69 0.75 0.89 1.06 1.19 1.41 1.68 1.77 1.84 1.96 2.01 2.12 2.31 2.32 2.33 2.41 2.50 2.45 2.34 2.27 2.18 2.11 1.98 1.85 1.76 1.64 1.46 1.33 1.27 1.17 1.11 1.06
1.17 0.84 0.59 0.49 0.41 0.46 0.54 0.50 0.39 0.39 0.47 0.47 0.47 0.46 0.49 0.57 0.60 0.69 0.79 0.94 1.06 1.19 1.42 1.72 1.94 1.99 2.08 2.20 2.20 2.31 2.44 2.30 2.20 2.28 2.37 2.45 2.53 2.46 2.38 2.24 2.07 2.02 1.92 1.78 1.58 1.44 1.30 1.17 1.10
0.84 0.82 0.63 0.46 0.43 0.51 0.52 0.51 0.46 0.40 0.41 0.40 0.37 0.42 0.50 0.53 0.58 0.70 0.81 0.98 1.12 1.25 1.41 1.65 1.90 2.03 2.09 2.16 2.13 2.01 2.13 2.21 2.09 1.96 2.08 2.29 2.47 2.62 2.63 2.44 2.30 2.22 2.10 1.87 1.74 1.69 1.59 1.41 1.27
0.89 0.90 0.69 0.49 0.47 0.58 0.58 0.56 0.45 0.39 0.41 0.38 0.35 0.40 0.50 0.54 0.61 0.69 0.78 0.95 1.07 1.22 1.33 1.55 1.83 1.99 1.96 1.93 1.99 1.94 1.93 2.02 2.09 2.02 1.99 2.10 2.33 2.55 2.78 2.68 2.49 2.37 2.28 2.17 1.95 1.80 1.77 1.69 1.49
0.92 0.80 0.65 0.63 0.62 0.69 0.75 0.72 0.45 0.39 0.40 0.39 0.40 0.43 0.50 0.53 0.59 0.66 0.74 0.88 1.02 1.21 1.30 1.36 1.62 1.96 2.01 2.00 2.12 2.14 2.17 2.19 2.18 2.06 1.99 2.04 2.15 2.29 2.41 2.50 2.40 2.40 2.34 2.28 2.15 1.96 1.86 1.88 1.73
0.89 0.51 0.55 0.69 0.93 0.97 0.84 1.03 0.55 0.40 0.40 0.39 0.44 0.49 0.51 0.54 0.59 0.66 0.72 0.87 0.97 1.15 1.39 1.45 1.53 1.81 2.05 2.08 2.07 2.03 2.05 2.03 2.00 1.92 1.84 1.94 2.15 2.25 2.29 2.35 2.37 2.22 2.14 2.09 2.07 2.04 1.92 1.94 1.94
0.71 0.47 0.59 0.80 1.09 1.11 0.83 1.02 0.64 0.39 0.44 0.39 0.39 0.45 0.46 0.51 0.60 0.68 0.75 0.88 1.03 1.18 1.40 1.57 1.63 1.68 1.90 1.98 1.94 1.92 1.91 1.90 1.97 1.95 1.87 1.84 2.00 2.22 2.32 2.30 2.32 2.32 2.17 2.00 1.92 1.95 1.98 1.94 1.89
0.68 0.78 0.96 1.13 1.57 1.63 0.68 0.70 0.69 0.57 0.58 0.46 0.40 0.44 0.46 0.52 0.64 0.70 0.79 0.94 1.11 1.26 1.44 1.62 1.74 1.63 1.71 1.96 1.95 1.81 1.76 1.77 1.86 1.94 2.00 1.96 1.92 1.99 2.13 2.22 2.19 2.18 2.21 2.15 1.97 1.89 1.94 1.91 1.85
1.05 1.57 2.33 2.42 2.23 1.28 0.39 0.47 0.66 0.54 0.53 0.49 0.46 0.49 0.47 0.51 0.63 0.70 0.80 0.95 1.06 1.20 1.35 1.55 1.67 1.66 1.64 1.83 1.93 1.81 1.69 1.67 1.66 1.74 1.83 1.88 1.88 1.84 1.88 2.00 2.05 2.02 2.03 2.07 2.05 1.96 1.92 1.90 1.89
1.08 1.35 1.85 1.76 1.11 0.56 0.34 0.48 0.55 0.45 0.39 0.38 0.39 0.45 0.46 0.46 0.53 0.64 0.74 0.88 1.00 1.05 1.17 1.38 1.57 1.58 1.58 1.73 1.92 1.92 1.77 1.73 1.61 1.61 1.69 1.75 1.73 1.67 1.65 1.71 1.81 1.80 1.77 1.83 1.95 1.93 1.85 1.85 1.87
1.01 1.05 0.97 1.38 0.92 0.64 0.51 0.44 0.42 0.32 0.29 0.31 0.34 0.38 0.43 0.46 0.51 0.58 0.69 0.76 0.83 0.95 1.04 1.17 1.44 1.61 1.58 1.60 1.80 2.02 2.00 1.87 1.75 1.60 1.62 1.66 1.66 1.64 1.64 1.63 1.65 1.62 1.61 1.62 1.67 1.73 1.70 1.72 1.75
0.87 0.97 1.23 1.75 1.46 0.87 0.53 0.44 0.58 0.47 0.42 0.38 0.38 0.40 0.40 0.44 0.53 0.58 0.63 0.68 0.75 0.87 0.95 1.05 1.26 1.51 1.59 1.57 1.66 1.85 2.08 2.01 1.92 1.88 1.69 1.63 1.61 1.62 1.63 1.62 1.61 1.57 1.51 1.55 1.59 1.56 1.51 1.58 1.61
0.91 1.16 1.45 1.60 1.30 1.10 0.73 0.62 0.65 0.57 0.50 0.45 0.42 0.39 0.39 0.42 0.50 0.56 0.58 0.66 0.73 0.82 0.95 1.04 1.15 1.32 1.46 1.47 1.52 1.62 1.83 2.02 2.04 1.97 1.80 1.63 1.60 1.56 1.50 1.50 1.54 1.53 1.48 1.48 1.58 1.56 1.49 1.53 1.55
0.78 0.97 1.25 1.70 1.29 0.89 0.84 0.69 0.46 0.40 0.43 0.41 0.39 0.38 0.38 0.42 0.46 0.53 0.57 0.64 0.69 0.79 0.92 1.00 1.07 1.22 1.35 1.42 1.46 1.52 1.60 1.77 1.99 1.92 1.75 1.58 1.54 1.54 1.51 1.45 1.46 1.48 1.49 1.51 1.54 1.53 1.46 1.45 1.47